1498374000.33,5973,21.0,74146.5,17.67,-17.17,-17.79,0,*7A
1498374001.55,5974,21.0,74146.5,17.67,-17.49,-18.17,0,*71
1498374002.78,5975,21.0,74142.8,17.69,-17.35,-18.01,0,*72
1498374004.06,5976,21.0,74144.0,17.73,-17.11,-17.97,0,*7C
1498374005.25,5977,21.0,74146.0,17.75,-18.11,-18.99,0,*75
1498374006.48,5978,21.0,74140.5,17.73,-18.49,-19.37,0,*74
1498374007.7,5979,21.0,74144.3,17.75,-18.55,-19.37,0,*7E
1498374008.95,5980,21.0,74146.3,17.77,-18.21,-18.93,0,*76
1498374010.16,5981,21.0,74146.8,17.75,-17.31,-18.11,0,*71
1498374011.43,5982,21.0,74144.0,17.77,-17.11,-18.01,0,*73
1498374012.69,5983,21.0,74144.8,17.77,-16.75,-17.79,0,*71
1498374013.91,5984,21.0,74146.0,17.79,-17.79,-18.69,0,*7B
1498374015.1,5985,21.0,74144.0,17.79,-17.87,-18.83,0,*7F
1498374016.35,5986,21.0,74142.8,17.81,-17.59,-18.65,0,*70
1498374017.58,5987,21.0,74148.0,17.79,-17.93,-19.13,0,*70
1498374018.82,5988,21.0,74144.0,17.81,-18.01,-19.07,0,*79
1498374020.03,5989,21.0,74146.8,17.83,-17.03,-18.25,0,*76
1498374021.23,5990,21.0,74142.3,17.83,-16.75,-18.07,0,*7E
1498374022.48,5991,21.0,74142.0,17.85,-16.55,-18.01,0,*7D
1498374023.76,5992,21.0,74142.0,17.85,-16.27,-17.93,0,*7F
1498374025.01,5993,21.0,74144.0,17.89,-16.13,-17.83,0,*74
1498374026.23,5994,21.0,74146.8,17.91,-16.09,-18.21,0,*76
1498374027.46,5995,21.0,74144.3,17.89,-15.75,-17.83,0,*71
1498374028.73,5996,21.0,74140.5,17.89,-15.35,-17.55,0,*7D
1498374029.95,5997,21.0,74142.8,17.91,-15.95,-18.35,0,*76
1498374031.14,5998,21.0,74144.0,17.95,-15.71,-18.25,0,*76
1498374032.39,5999,21.0,74144.5,17.91,-17.41,-20.19,0,*76
1498374033.62,6000,21.0,74142.8,17.91,-17.59,-20.63,0,*78
1498374034.82,6001,21.0,74144.5,17.91,-16.41,-19.37,0,*7A
1498374036.01,6002,21.0,74144.5,17.91,-15.63,-18.73,0,*7B
1498374037.24,6003,21.0,74144.3,17.95,-16.09,-19.37,0,*70
1498374038.44,6004,21.0,74144.3,17.91,-16.97,-20.43,0,*7D
1498374039.68,6005,21.0,74142.0,17.91,-16.51,-20.35,0,*77
1498374040.91,6006,21.0,74144.5,17.87,-16.97,-20.79,0,*71
1498374042.18,6007,21.0,74142.3,17.89,-17.41,-21.57,0,*79
1498374043.45,6008,21.0,74140.8,17.85,-17.59,-21.87,0,*7E
1498374044.68,6009,21.0,74146.5,17.83,-18.07,-22.47,0,*72
1498374045.88,6010,21.0,74142.0,17.79,-18.79,-23.39,0,*7E
1498374047.09,6011,21.0,74142.0,17.75,-19.95,-25.13,0,*7E
1498374048.36,6012,21.0,74142.3,17.73,-19.81,-24.87,0,*72
1498374049.58,6013,21.0,74142.8,17.67,-19.71,-25.09,0,*7E
1498374050.84,6014,21.0,74144.0,17.61,-18.31,-23.65,0,*76
1498374052.06,6015,21.0,74142.0,17.57,-18.07,-23.49,0,*79
1498374053.28,6016,21.0,74144.0,17.57,-18.17,-23.53,0,*70
1498374054.49,6017,21.0,74146.3,17.53,-17.35,-22.97,0,*73
1498374055.71,6018,21.0,74146.0,17.49,-17.73,-23.65,0,*79
1498374056.91,6019,21.0,74146.0,17.45,-16.55,-22.37,0,*77
1498374058.13,6020,21.0,74142.3,17.43,-16.97,-22.97,0,*7F
1498374059.41,6021,21.0,74140.5,17.39,-17.03,-23.33,0,*70
1498374060.63,6022,21.0,74146.0,17.37,-16.69,-22.87,0,*7E
1498374061.86,6023,21.0,74142.0,17.35,-15.71,-22.11,0,*78
1498374063.11,6024,21.06,74144.0,17.35,-16.17,-22.87,0,*73
1498374064.34,6025,21.0,74140.5,17.29,-16.09,-22.67,0,*7E
1498374065.61,6026,21.0,74140.5,17.27,-15.39,-22.21,0,*71
1498374066.85,6027,21.0,74138.8,17.27,-15.39,-22.27,0,*76
1498374068.08,6028,21.0,74142.3,17.21,-15.75,-22.73,0,*76
1498374069.33,6029,21.0,74142.5,17.21,-17.07,-24.25,0,*75
1498374070.58,6030,21.0,74142.3,17.15,-16.97,-24.21,0,*76
1498374071.79,6031,21.0,74142.8,17.13,-16.37,-23.75,0,*7D
1498374073.03,6032,21.0,74140.5,17.09,-15.89,-23.29,0,*7A
1498374074.23,6033,21.0,74140.3,17.09,-15.53,-23.13,0,*75
1498374075.47,6034,21.0,74140.8,17.07,-15.81,-23.33,0,*71
1498374076.72,6035,21.0,74140.5,16.99,-15.81,-23.65,0,*75
1498374077.99,6036,21.0,74140.8,16.97,-15.35,-23.03,0,*77
1498374079.22,6037,21.0,74142.0,16.95,-15.39,-23.13,0,*79
1498374080.43,6038,21.0,74140.0,16.93,-15.71,-23.59,0,*72
1498374081.64,6039,21.0,74142.0,16.91,-15.15,-23.09,0,*76
1498374082.89,6040,21.0,74142.3,16.89,-14.97,-22.97,0,*7C
1498374084.09,6041,21.0,74142.8,16.87,-15.25,-23.43,0,*73
1498374085.34,6042,21.0,74144.3,16.83,-14.79,-22.73,0,*7E
1498374086.58,6043,21.0,74142.5,16.83,-14.15,-22.21,0,*72
1498374087.8,6044,21.0,74142.5,16.81,-13.73,-21.73,0,*74
1498374089.08,6045,21.0,74140.3,16.81,-14.05,-22.17,0,*72
1498374090.31,6046,21.0,74142.3,16.75,-13.93,-22.27,0,*71
1498374091.56,6047,21.0,74140.3,16.75,-13.83,-22.11,0,*74
1498374092.79,6048,21.0,74140.3,16.73,-13.83,-22.11,0,*7D
1498374094.01,6049,21.0,74142.8,16.73,-13.65,-21.83,0,*7C
1498374095.23,6050,21.0,74142.3,16.69,-13.47,-21.83,0,*7F
1498374096.49,6051,21.0,74142.8,16.69,-13.61,-21.87,0,*7E
1498374097.72,6052,21.0,74140.3,16.67,-14.15,-22.67,0,*7A
1498374098.93,6053,21.0,74140.5,16.65,-14.23,-22.83,0,*76
1498374100.15,6054,21.0,74140.8,16.61,-13.33,-21.77,0,*7B
1498374101.38,6055,21.0,74140.3,16.61,-13.73,-22.47,0,*7E
1498374102.6,6056,21.0,74140.5,16.61,-13.47,-21.97,0,*74
1498374103.88,6057,21.0,74140.3,16.59,-12.79,-21.27,0,*79
1498374105.13,6058,21.0,74140.3,16.55,-12.97,-21.57,0,*7D
1498374106.39,6059,21.0,74142.5,16.51,-13.97,-22.63,0,*7D
1498374107.63,6060,21.0,74144.3,16.51,-13.69,-22.63,0,*76
1498374108.86,6061,21.0,74146.5,16.49,-13.29,-22.07,0,*78
1498374110.11,6062,21.0,74142.8,16.47,-13.07,-21.83,0,*76
1498374111.32,6063,21.0,74144.8,16.45,-13.07,-21.93,0,*74
1498374112.52,6064,21.0,74144.3,16.43,-13.73,-22.87,0,*70
1498374113.72,6065,21.0,74142.8,16.43,-13.43,-22.57,0,*7F
1498374114.98,6066,21.0,74142.8,16.39,-13.01,-21.83,0,*7D
1498374116.18,6067,21.0,74140.8,16.39,-13.07,-22.11,0,*72
1498374117.4,6068,21.0,74142.8,16.37,-13.15,-22.27,0,*75
1498374118.65,6069,21.0,74142.0,16.37,-12.71,-21.73,0,*75
1498374119.88,6070,21.0,74142.5,16.31,-12.11,-21.13,0,*7B
1498374121.15,6071,21.0,74142.3,16.29,-12.21,-21.23,0,*73
1498374122.43,6072,21.0,74142.0,16.29,-11.85,-21.03,0,*7F
1498374123.71,6073,21.0,74144.3,16.29,-12.07,-21.33,0,*74
1498374124.95,6074,21.0,74142.0,16.23,-11.41,-20.53,0,*7F
1498374126.18,6075,21.0,74146.0,16.27,-11.07,-20.29,0,*75
1498374127.41,6076,21.0,74144.8,16.23,-10.93,-20.19,0,*7D
1498374128.64,6077,21.0,74142.8,16.23,-10.71,-19.99,0,*72
1498374129.85,6078,21.0,74140.3,16.23,-10.15,-19.51,0,*7B
1498374131.07,6079,21.0,74142.5,16.23,-9.97,-19.27,0,*49
1498374132.26,6080,21.0,74144.0,16.23,-9.97,-19.37,0,*4E
1498374133.52,6081,21.0,74144.0,16.21,-10.75,-20.39,0,*7D
1498374134.78,6082,21.0,74144.0,16.19,-11.89,-21.67,0,*7D
1498374136.04,6083,21.0,74140.0,16.19,-11.33,-21.03,0,*7F
1498374137.27,6084,21.0,74142.8,16.15,-11.11,-20.99,0,*76
1498374138.5,6085,21.06,74146.0,16.15,-11.29,-21.13,0,*7F
1498374139.71,6086,21.0,74144.0,16.15,-10.85,-20.69,0,*77
1498374140.97,6087,21.0,74140.0,16.13,-10.75,-20.63,0,*75
1498374142.19,6088,21.0,74142.5,16.11,-10.57,-20.49,0,*70
1498374143.44,6089,21.0,74142.5,16.05,-10.35,-20.35,0,*7B
1498374144.68,6090,21.0,74140.3,16.07,-11.07,-21.53,0,*70
1498374145.87,6091,21.06,74146.0,16.03,-10.05,-20.39,0,*7B
1498374147.14,6092,21.0,74142.0,16.01,-10.75,-21.33,0,*76
1498374148.36,6093,21.0,74140.8,15.99,-11.15,-21.83,0,*79
1498374149.64,6094,21.0,74140.3,15.97,-10.67,-21.23,0,*7E
1498374150.9,6095,21.06,74144.3,15.97,-9.41,-19.85,0,*44
1498374152.13,6096,21.0,74144.3,15.93,-10.05,-20.79,0,*72
1498374153.34,6097,21.0,74142.0,15.91,-9.45,-20.05,0,*46
1498374154.54,6098,21.0,74142.5,15.91,-9.05,-19.91,0,*4A
1498374155.77,6099,21.0,74142.8,15.89,-9.97,-21.03,0,*49
1498374157.01,6100,21.0,74144.3,15.89,-9.67,-20.83,0,*4E
1498374158.25,6101,21.0,74144.3,15.85,-8.85,-19.81,0,*46
1498374159.44,6102,21.0,74144.3,15.83,-8.75,-19.71,0,*43
1498374160.65,6103,21.0,74142.0,15.83,-8.29,-19.31,0,*4F
1498374161.9,6104,21.0,74142.8,15.79,-9.23,-20.53,0,*48
1498374163.14,6105,21.0,74142.3,15.79,-8.41,-19.65,0,*43
1498374164.35,6106,21.0,74142.0,15.77,-8.45,-19.81,0,*40
1498374165.56,6107,21.0,74142.3,15.75,-8.21,-19.51,0,*4C
1498374166.74,6108,21.0,74142.3,15.73,-8.33,-19.75,0,*40
1498374167.98,6109,21.0,74140.5,15.71,-8.29,-19.65,0,*49
1498374169.19,6110,21.0,74142.3,15.69,-7.61,-18.99,0,*49
1498374170.4,6111,21.0,74142.8,15.69,-7.35,-18.73,0,*4D
1498374171.65,6112,21.0,74142.3,15.67,-6.97,-18.45,0,*4C
1498374172.86,6113,21.0,74142.5,15.63,-6.89,-18.45,0,*46
1498374174.1,6114,21.0,74140.8,15.61,-7.27,-18.93,0,*4D
1498374175.31,6115,21.0,74140.3,15.61,-6.77,-18.35,0,*44
1498374176.58,6116,21.0,74146.0,15.59,-6.19,-17.79,0,*43
1498374177.86,6117,21.0,74144.3,15.59,-5.89,-17.59,0,*4A
1498374179.1,6118,21.0,74144.3,15.59,-5.51,-17.17,0,*4A
1498374180.33,6119,21.0,74144.5,15.57,-5.39,-17.07,0,*4A
1498374181.57,6120,21.0,74140.3,15.55,-5.39,-17.21,0,*46
1498374182.78,6121,21.0,74142.8,15.55,-4.99,-16.79,0,*40
1498374184.05,6122,21.0,74144.5,15.55,-5.15,-17.25,0,*4E
1498374185.29,6123,21.0,74144.5,15.53,-5.69,-17.79,0,*4B
1498374186.54,6124,21.0,74140.8,15.55,-5.27,-17.35,0,*48
1498374187.73,6125,21.0,74144.0,15.53,-5.43,-17.73,0,*4F
1498374188.92,6126,21.0,74146.3,15.49,-6.01,-18.49,0,*44
1498374190.14,6127,21.06,74144.0,15.49,-5.77,-18.21,0,*49
1498374191.38,6128,21.0,74146.3,15.45,-5.31,-17.83,0,*4F
1498374192.6,6129,21.0,74142.3,15.47,-4.65,-17.07,0,*40
1498374193.84,6130,21.0,74146.3,15.45,-4.09,-16.51,0,*42
1498374195.03,6131,21.06,74144.8,15.43,-3.87,-16.41,0,*45
1498374196.28,6132,21.0,74142.3,15.43,-3.59,-16.13,0,*42
1498374197.48,6133,21.0,74146.8,15.39,-3.35,-15.95,0,*49
1498374198.67,6134,21.0,74144.8,15.43,-3.23,-15.75,0,*4A
1498374199.87,6135,21.0,74146.8,15.43,-3.03,-15.53,0,*4D
1498374201.06,6136,21.06,74144.8,15.43,-3.11,-15.75,0,*49
1498374202.28,6137,21.0,74144.8,15.39,-3.27,-15.85,0,*4F
1498374203.5,6138,21.0,74144.3,15.39,-3.67,-16.55,0,*4A
1498374204.71,6139,21.0,74146.8,15.37,-3.19,-15.99,0,*4F
1498374205.95,6140,21.06,74144.5,15.37,-3.11,-15.89,0,*48
1498374207.17,6141,21.0,74146.3,15.35,-3.07,-15.85,0,*40
1498374208.44,6142,21.0,74146.3,15.37,-2.47,-15.21,0,*4A
1498374209.66,6143,21.0,74146.5,15.35,-2.19,-15.01,0,*40
1498374210.9,6144,21.0,74146.8,15.35,-2.71,-15.57,0,*4A
1498374212.12,6145,21.0,74144.8,15.35,-2.67,-15.63,0,*4B
1498374213.32,6146,21.0,74144.5,15.35,-2.79,-15.75,0,*40
1498374214.57,6147,21.06,74144.5,15.35,-2.55,-15.57,0,*4F
1498374215.81,6148,21.0,74144.3,15.35,-2.59,-15.57,0,*4C
1498374217.02,6149,21.06,74146.5,15.35,-2.59,-15.99,0,*4F
1498374218.29,6150,21.0,74142.3,15.33,-2.71,-15.89,0,*4A
1498374219.51,6151,21.06,74146.0,15.31,-2.95,-16.27,0,*44
1498374220.7,6152,21.0,74146.3,15.31,-2.87,-16.37,0,*45
1498374221.91,6153,21.0,74146.0,15.31,-2.71,-16.37,0,*4D
1498374223.15,6154,21.0,74142.8,15.31,-2.59,-16.27,0,*41
1498374224.37,6155,21.0,74142.3,15.29,-2.87,-16.59,0,*43
1498374225.61,6156,21.0,74144.3,15.29,-2.67,-16.41,0,*47
1498374226.83,6157,21.0,74144.3,15.27,-2.71,-16.75,0,*48
1498374228.08,6158,21.0,74142.8,15.29,-2.99,-17.03,0,*4F
1498374229.32,6159,21.06,74146.3,15.27,-3.55,-17.79,0,*4C
1498374230.56,6160,21.0,74146.3,15.25,-3.59,-17.73,0,*42
1498374231.81,6161,21.0,74142.3,15.25,-3.15,-17.41,0,*4A
1498374233.03,6162,21.06,74146.3,15.23,-3.47,-17.73,0,*49
1498374234.28,6163,21.0,74146.3,15.21,-3.27,-17.59,0,*44
1498374235.53,6164,21.0,74142.0,15.17,-3.59,-18.21,0,*4F
1498374236.76,6165,21.06,74146.8,15.17,-4.21,-19.13,0,*46
1498374238.0,6166,21.06,74146.8,15.15,-3.83,-18.59,0,*47
1498374239.22,6167,21.0,74146.0,15.13,-3.39,-18.31,0,*4F
1498374240.42,6168,21.06,74148.8,15.13,-3.75,-18.73,0,*4E
1498374241.69,6169,21.0,74146.0,15.11,-3.47,-18.35,0,*4E
1498374242.9,6170,21.06,74144.8,15.09,-3.43,-18.41,0,*48
1498374244.1,6171,21.0,74146.0,15.09,-3.79,-18.83,0,*4E
1498374245.29,6172,21.0,74144.0,15.05,-3.83,-18.79,0,*41
1498374246.51,6173,21.06,74144.5,15.05,-3.71,-18.65,0,*40
1498374247.73,6174,21.0,74146.8,15.05,-3.63,-18.45,0,*46
1498374248.97,6175,21.06,74146.3,15.03,-3.71,-18.65,0,*40
1498374250.2,6176,21.0,74146.0,15.01,-3.43,-18.07,0,*44
1498374251.38,6177,21.06,74144.5,15.01,-3.23,-17.73,0,*4F
1498374252.63,6178,21.0,74146.3,14.95,-3.55,-18.11,0,*46
1498374253.9,6179,21.0,74146.0,14.95,-3.55,-17.93,0,*42
1498374255.14,6180,21.06,74146.0,14.95,-2.71,-16.89,0,*49
1498374256.35,6181,21.0,74144.5,14.93,-2.75,-16.93,0,*41
1498374257.57,6182,21.0,74146.5,14.93,-2.43,-16.31,0,*4F
1498374258.79,6183,21.06,74148.5,14.93,-2.35,-16.17,0,*4B
1498374260.04,6184,21.0,74146.3,14.91,-2.71,-16.59,0,*44
1498374261.25,6185,21.06,74146.5,14.91,-2.83,-16.45,0,*45
1498374262.47,6186,21.06,74146.8,14.87,-3.15,-16.93,0,*44
1498374263.71,6187,21.06,74148.3,14.87,-2.79,-16.27,0,*41
1498374264.9,6188,21.06,74144.8,14.85,-3.31,-16.93,0,*4E
1498374266.15,6189,21.06,74146.0,14.83,-3.83,-17.25,0,*4C
1498374267.34,6190,21.06,74150.0,14.81,-4.17,-17.73,0,*4F
1498374268.57,6191,21.0,74144.0,14.79,-3.23,-16.51,0,*48
1498374269.78,6192,21.06,74144.5,14.75,-3.23,-16.45,0,*42
1498374271.0,6193,21.0,74146.0,14.69,-2.59,-15.75,0,*42
1498374272.2,6194,21.06,74146.0,14.69,-2.15,-15.11,0,*4F
1498374273.39,6195,21.06,74146.8,14.69,-1.71,-14.37,0,*4A
1498374274.64,6196,21.0,74144.8,14.69,-1.95,-14.75,0,*45
1498374275.86,6197,21.0,74142.5,14.65,-2.51,-15.29,0,*4B
1498374277.06,6198,21.0,74144.3,14.65,-2.79,-15.53,0,*43
1498374278.26,6199,21.06,74150.0,14.61,-2.79,-15.49,0,*4D
1498374279.47,6200,21.06,74146.0,14.61,-1.95,-14.37,0,*47
1498374280.69,6201,21.06,74148.0,14.61,-1.83,-14.29,0,*4E
1498374281.94,6202,21.0,74146.3,14.59,-1.83,-14.29,0,*46
1498374283.13,6203,21.06,74148.0,14.57,-1.75,-14.19,0,*43
1498374284.38,6204,21.06,74148.0,14.59,-1.99,-14.33,0,*40
1498374285.6,6205,21.06,74146.3,14.57,-2.03,-14.33,0,*4F
1498374286.84,6206,21.06,74150.3,14.55,-1.71,-13.87,0,*40
1498374288.07,6207,21.06,74150.0,14.55,-1.59,-13.83,0,*4F
1498374289.32,6208,21.06,74148.3,14.53,-1.83,-14.01,0,*4C
1498374290.55,6209,21.0,74146.5,14.49,-1.87,-13.93,0,*4E
1498374291.76,6210,21.06,74148.3,14.49,-2.19,-14.33,0,*4F
1498374293.0,6211,21.06,74148.5,14.49,-2.35,-14.51,0,*44
1498374294.19,6212,21.06,74150.0,14.47,-2.15,-14.23,0,*4E
1498374295.43,6213,21.0,74146.3,14.47,-2.75,-14.97,0,*46
1498374296.7,6214,21.06,74148.5,14.45,-2.51,-14.79,0,*45
1498374297.91,6215,21.06,74148.0,14.43,-2.15,-14.43,0,*4B
1498374299.12,6216,21.06,74152.3,14.43,-2.15,-14.43,0,*48
1498374300.33,6217,21.06,74150.3,14.41,-2.31,-14.61,0,*4D
1498374301.58,6218,21.06,74150.3,14.41,-2.19,-14.47,0,*4C
1498374302.79,6219,21.06,74148.0,14.39,-2.31,-14.75,0,*49
1498374304.01,6220,21.06,74148.0,14.39,-2.63,-15.07,0,*40
1498374305.26,6221,21.06,74150.0,14.39,-2.47,-15.01,0,*41
1498374306.5,6222,21.0,74148.0,14.39,-2.47,-14.93,0,*48
1498374307.72,6223,21.06,74150.5,14.35,-2.55,-15.15,0,*49
1498374309.0,6224,21.06,74152.3,14.37,-2.67,-15.39,0,*43
1498374310.22,6225,21.06,74152.0,14.35,-2.95,-15.57,0,*45
1498374311.42,6226,21.0,74146.0,14.31,-3.23,-15.95,0,*40
1498374312.64,6227,21.06,74150.5,14.31,-3.31,-16.17,0,*4B
1498374313.84,6228,21.06,74148.8,14.31,-3.07,-15.75,0,*46
1498374315.04,6229,21.06,74154.0,14.31,-2.87,-15.63,0,*49
1498374316.26,6230,21.0,74150.5,14.31,-3.07,-15.81,0,*44
1498374317.45,6231,21.06,74148.0,14.31,-2.83,-15.63,0,*44
1498374318.68,6232,21.06,74154.5,14.27,-3.11,-15.85,0,*42
1498374319.92,6233,21.06,74148.3,14.25,-3.35,-16.23,0,*48
1498374321.14,6234,21.06,74150.0,14.31,-3.59,-16.45,0,*40
1498374322.42,6235,21.0,74150.5,14.25,-4.01,-17.11,0,*4E
1498374323.66,6236,21.0,74148.5,14.21,-4.61,-17.63,0,*4A
1498374324.84,6237,21.06,74148.0,14.23,-4.45,-17.31,0,*48
1498374326.09,6238,21.0,74146.8,14.21,-4.37,-17.21,0,*41
1498374327.32,6239,21.06,74150.3,14.19,-4.85,-17.87,0,*4E
1498374328.51,6240,21.06,74150.5,14.17,-5.47,-18.49,0,*4C
1498374329.7,6241,21.0,74150.8,14.17,-5.43,-18.49,0,*49
1498374330.89,6242,21.06,74152.3,14.13,-5.47,-18.41,0,*42
1498374332.07,6243,21.06,74148.8,14.13,-5.39,-18.25,0,*48
1498374333.26,6244,21.06,74148.3,14.13,-5.35,-18.07,0,*43
1498374334.47,6245,21.06,74152.5,14.13,-5.19,-17.73,0,*40
1498374335.7,6246,21.06,74150.0,14.13,-4.93,-17.45,0,*45
1498374336.91,6247,21.06,74150.3,14.13,-5.11,-17.49,0,*43
1498374338.17,6248,21.06,74148.0,14.11,-5.23,-17.55,0,*42
1498374339.44,6249,21.0,74148.0,14.11,-5.65,-18.01,0,*4F
1498374340.68,6250,21.06,74150.5,14.11,-6.23,-18.73,0,*43
1498374341.89,6251,21.06,74148.3,14.09,-6.47,-18.93,0,*47
1498374343.1,6252,21.06,74148.8,14.09,-6.55,-18.89,0,*4C
1498374344.31,6253,21.06,74150.3,14.09,-6.59,-18.89,0,*41
1498374345.52,6254,21.06,74148.3,14.09,-6.47,-18.55,0,*48
1498374346.7,6255,21.06,74148.5,14.09,-6.85,-18.79,0,*49
1498374347.93,6256,21.06,74152.0,14.03,-6.93,-19.03,0,*4B
1498374349.17,6257,21.06,74150.3,14.05,-7.31,-19.23,0,*47
1498374350.4,6258,21.06,74148.0,14.05,-7.39,-19.27,0,*44
1498374351.62,6259,21.06,74152.0,14.05,-7.65,-19.37,0,*4D
1498374352.84,6260,21.06,74152.8,14.03,-7.83,-19.47,0,*4E
1498374354.03,6261,21.06,74148.8,14.05,-8.45,-20.05,0,*40
1498374355.22,6262,21.06,74148.8,14.05,-8.75,-20.29,0,*4E
1498374356.49,6263,21.06,74150.5,14.03,-9.11,-20.83,0,*4A
1498374357.74,6264,21.06,74148.0,14.03,-8.93,-20.19,0,*45
1498374358.97,6265,21.06,74148.0,13.99,-8.85,-19.99,0,*45
1498374360.22,6266,21.0,74150.0,13.99,-9.11,-20.29,0,*4B
1498374361.46,6267,21.06,74148.3,13.99,-9.53,-20.39,0,*4D
1498374362.66,6268,21.06,74148.0,14.01,-9.79,-20.73,0,*42
1498374363.9,6269,21.06,74146.5,13.99,-9.83,-20.73,0,*40
1498374365.14,6270,21.06,74148.0,13.99,-10.19,-20.89,0,*76
1498374366.36,6271,21.06,74152.8,13.99,-10.49,-20.93,0,*79
1498374367.56,6272,21.06,74148.0,13.97,-10.27,-20.73,0,*72
1498374368.76,6273,21.06,74148.8,13.97,-10.53,-20.73,0,*70
1498374370.04,6274,21.06,74148.8,13.95,-11.55,-21.87,0,*78
1498374371.31,6275,21.06,74148.3,13.95,-11.81,-21.87,0,*70
1498374372.56,6276,21.06,74148.3,13.95,-11.55,-21.39,0,*7F
1498374373.82,6277,21.06,74148.5,13.95,-11.67,-21.39,0,*7F
1498374375.04,6278,21.06,74148.0,13.91,-12.03,-21.77,0,*7F
1498374376.24,6279,21.06,74150.5,13.93,-12.21,-21.73,0,*78
1498374377.47,6280,21.06,74152.5,13.93,-12.03,-21.23,0,*7B
1498374378.73,6281,21.06,74150.3,13.91,-13.11,-22.47,0,*7B
1498374379.98,6282,21.06,74152.5,13.89,-13.61,-22.77,0,*75
1498374381.24,6283,21.06,74150.5,13.89,-13.29,-22.17,0,*7E
1498374382.44,6284,21.06,74148.0,13.87,-13.19,-22.03,0,*71
1498374383.67,6285,21.06,74154.0,13.89,-13.61,-22.03,0,*71
1498374384.87,6286,21.06,74150.0,13.87,-13.73,-22.07,0,*7B
1498374386.12,6287,21.06,74148.3,13.87,-14.05,-22.31,0,*79
1498374387.35,6288,21.06,74150.0,13.85,-14.23,-22.53,0,*74
1498374388.59,6289,21.06,74152.8,13.85,-14.69,-22.73,0,*79
1498374389.84,6290,21.06,74150.5,13.85,-14.79,-22.57,0,*76
1498374391.08,6291,21.06,74148.8,13.81,-14.75,-22.41,0,*78
1498374392.32,6292,21.06,74152.3,13.81,-15.01,-22.57,0,*7E
1498374393.56,6293,21.06,74152.8,13.81,-14.97,-22.11,0,*73
1498374394.83,6294,21.06,74148.3,13.81,-15.01,-22.17,0,*7C
1498374396.11,6295,21.06,74148.3,13.81,-15.57,-22.47,0,*7B
1498374397.31,6296,21.06,74148.8,13.79,-15.99,-22.93,0,*74
1498374398.56,6297,21.06,74150.8,13.79,-16.65,-23.53,0,*78
1498374399.76,6298,21.06,74148.0,13.79,-16.37,-22.93,0,*7D
1498374400.99,6299,21.06,74150.3,13.77,-16.55,-23.13,0,*7F
1498374402.24,6300,21.06,74148.5,13.77,-16.69,-22.97,0,*7C
1498374403.48,6301,21.06,74150.5,13.79,-16.45,-22.47,0,*70
1498374404.7,6302,21.06,74150.5,13.79,-16.17,-22.11,0,*77
1498374405.93,6303,21.06,74152.0,13.77,-16.55,-22.37,0,*7A
1498374407.21,6304,21.06,74150.8,13.77,-16.69,-22.47,0,*75
1498374408.47,6305,21.06,74150.3,13.77,-16.83,-22.17,0,*75
1498374409.72,6306,21.06,74152.3,13.77,-16.69,-22.03,0,*77
1498374410.99,6307,21.06,74148.0,13.77,-17.11,-22.21,0,*78
1498374412.28,6308,21.06,74148.3,13.77,-16.69,-21.67,0,*78
1498374413.54,6309,21.06,74148.5,13.77,-16.37,-21.23,0,*72
1498374414.76,6310,21.06,74146.0,13.77,-16.37,-21.09,0,*72
1498374415.98,6311,21.06,74150.0,13.79,-16.51,-21.13,0,*76
1498374417.24,6312,21.06,74150.8,13.81,-16.17,-20.73,0,*77
1498374418.5,6313,21.06,74148.0,13.85,-16.13,-20.63,0,*77
1498374419.74,6314,21.06,74150.3,13.85,-15.99,-20.35,0,*72
1498374420.96,6315,21.06,74152.8,13.87,-16.03,-20.35,0,*71
1498374422.18,6316,21.06,74148.8,13.87,-15.89,-19.99,0,*7F
1498374423.41,6317,21.06,74150.0,13.89,-15.49,-19.61,0,*7B
1498374424.61,6318,21.06,74148.5,13.93,-15.53,-19.47,0,*70
1498374425.81,6319,21.06,74148.8,13.93,-15.25,-19.17,0,*75
1498374427.02,6320,21.06,74148.5,13.97,-15.21,-18.99,0,*78
1498374428.24,6321,21.06,74148.0,13.99,-15.29,-19.03,0,*7D
1498374429.44,6322,21.06,74148.8,14.01,-15.75,-19.47,0,*71
1498374430.65,6323,21.06,74150.8,14.05,-15.35,-18.99,0,*72
1498374431.85,6324,21.06,74150.5,14.05,-15.63,-19.13,0,*75
1498374433.04,6325,21.06,74150.3,14.09,-15.63,-19.07,0,*7D
1498374434.26,6326,21.06,74148.3,14.11,-15.29,-18.69,0,*70
1498374435.47,6327,21.06,74148.8,14.15,-15.11,-18.41,0,*74
1498374436.71,6328,21.06,74148.3,14.19,-15.63,-18.93,0,*7D
1498374437.95,6329,21.06,74148.5,14.19,-14.89,-18.01,0,*72
1498374439.18,6330,21.06,74150.0,14.23,-14.79,-17.83,0,*79
1498374440.43,6331,21.06,74148.0,14.25,-14.75,-17.87,0,*76
1498374441.66,6332,21.06,74148.5,14.31,-14.55,-17.69,0,*72
1498374442.89,6333,21.06,74146.8,14.35,-14.15,-17.17,0,*7A
1498374444.11,6334,21.06,74144.5,14.37,-14.33,-17.31,0,*7F
1498374445.37,6335,21.06,74146.0,14.41,-14.15,-17.11,0,*79
1498374446.62,6336,21.06,74144.5,14.45,-13.97,-16.83,0,*79
1498374447.84,6337,21.06,74144.5,14.49,-13.07,-16.03,0,*75
1498374449.12,6338,21.06,74150.3,14.55,-12.53,-15.43,0,*70
1498374450.37,6339,21.06,74146.5,14.59,-12.65,-15.67,0,*7E
1498374451.56,6340,21.06,74146.3,14.65,-12.97,-15.99,0,*73
1498374452.79,6341,21.06,74146.8,14.69,-13.15,-16.23,0,*77
1498374454.03,6342,21.06,74150.3,14.71,-13.87,-16.93,0,*7D
1498374455.28,6343,21.06,74144.3,14.77,-13.97,-17.17,0,*76
1498374456.53,6344,21.06,74148.5,14.79,-14.79,-18.07,0,*76
1498374457.8,6345,21.06,74150.0,14.79,-14.75,-17.93,0,*79
1498374459.01,6346,21.06,74146.8,14.81,-15.35,-18.79,0,*73
1498374460.28,6347,21.06,74144.8,14.83,-16.31,-19.81,0,*71
1498374461.51,6348,21.06,74146.5,14.83,-16.75,-20.43,0,*7A
1498374462.74,6349,21.06,74146.0,14.83,-16.83,-20.59,0,*79
1498374463.98,6350,21.06,74146.8,14.83,-17.07,-21.09,0,*78
1498374465.23,6351,21.06,74146.5,14.81,-16.51,-20.35,0,*77
1498374466.42,6352,21.06,74146.3,14.81,-15.99,-20.05,0,*70
1498374467.62,6353,21.06,74148.0,14.81,-15.53,-19.75,0,*7A
1498374468.87,6354,21.06,74146.5,14.79,-15.39,-19.71,0,*72
1498374470.07,6355,21.06,74146.8,14.81,-15.63,-19.99,0,*7D
1498374471.3,6356,21.06,74144.3,14.83,-15.21,-19.71,0,*7C
1498374472.52,6357,21.06,74144.5,14.81,-15.11,-19.85,0,*77
1498374473.72,6358,21.06,74144.5,14.81,-15.49,-20.29,0,*79
1498374474.94,6359,21.06,74146.8,14.83,-15.63,-20.43,0,*7E
1498374476.19,6360,21.06,74144.3,14.83,-15.15,-20.15,0,*76
1498374477.39,6361,21.06,74146.5,14.81,-15.67,-20.69,0,*7B
1498374478.61,6362,21.06,74150.3,14.79,-15.63,-20.69,0,*7B
1498374479.83,6363,21.06,74144.3,14.79,-15.75,-21.13,0,*71
1498374481.05,6364,21.06,74144.8,14.79,-15.49,-20.69,0,*75
1498374482.3,6365,21.06,74144.3,14.79,-15.67,-21.27,0,*73
1498374483.52,6366,21.06,74144.3,14.75,-15.71,-21.47,0,*7D
1498374484.75,6367,21.06,74146.8,14.75,-15.75,-21.63,0,*7E
1498374485.99,6368,21.06,74146.3,14.75,-15.57,-21.47,0,*77
1498374487.23,6369,21.06,74146.8,14.75,-15.57,-21.63,0,*70
1498374488.48,6370,21.06,74146.0,14.71,-15.35,-21.43,0,*7A
1498374489.68,6371,21.06,74146.8,14.69,-15.25,-21.39,0,*7E
1498374490.93,6372,21.06,74144.3,14.69,-14.75,-20.83,0,*79
1498374492.15,6373,21.06,74148.0,14.69,-14.79,-21.09,0,*77
1498374493.37,6374,21.06,74144.5,14.69,-15.07,-21.57,0,*73
1498374494.63,6375,21.06,74144.5,14.69,-14.79,-21.27,0,*7D
1498374495.88,6376,21.06,74146.8,14.67,-14.23,-20.83,0,*70
1498374497.12,6377,21.06,74142.5,14.67,-14.55,-21.43,0,*7D
1498374498.34,6378,21.06,74146.0,14.65,-14.29,-21.03,0,*7F
1498374499.57,6379,21.06,74144.3,14.63,-13.69,-20.69,0,*76
1498374500.77,6380,21.06,74146.0,14.61,-13.73,-20.73,0,*72
1498374502.0,6381,21.06,74142.8,14.61,-13.93,-20.99,0,*79
1498374503.25,6382,21.06,74146.5,14.61,-13.33,-20.49,0,*7D
1498374504.45,6383,21.06,74142.5,14.61,-13.15,-20.59,0,*79
1498374505.73,6384,21.06,74146.8,14.59,-13.61,-20.99,0,*7A
1498374506.94,6385,21.06,74146.5,14.57,-14.19,-22.03,0,*7C